Location: Forst
(46.9333°N, 15.4333°E)
Time: 03:13:23
(UTC+00:00)

Tiangong - Pass Details

Date: 30 September 2021
Orbit: 382 x 385 km, 41.5° (Epoch: 15 October)

Event Time Altitude Azimuth Distance (km) Brightness Sun altitude
Exits shadow 03:15:03 22° 177° (S) 880 2.7 -17.8°
Maximum altitude 03:15:22 23° 167° (SSE) 869 2.8 -17.8°
Drops below altitude 10° 03:17:56 10° 112° (ESE) 1,398 4.7 -17.4°
Sets 03:20:15 0° 97° (E) 2,251 6.3 -17.0°
